When you browse on this site, cookies collect data to enhance your experience and personalize the content and advertising you see.
Visit our Privacy Policy to learn more. By continuing to use the site, you agree to this use of cookies and data.
  • In Portugal
  • List of Countries
  • For 7 days
  • Water Temperature
  • Weather Map
  • Weather Widgets
  • user-avatar
    Login

    Hourly Weather Lubliniec

    Today, 7 April, Tuesday

    Time Temperature Precipitation Wind Pressure Humidity
    00:00 +8°C° 0 mm 4 mps 749 mmHg 55%
    01:00 +8°C° 0 mm 4 mps 749 mmHg 55%
    02:00 +7°C° 0 mm 4 mps 749 mmHg 56%
    03:00 +7°C° 0 mm 4 mps 749 mmHg 57%
    04:00 +7°C° 0 mm 4 mps 749 mmHg 58%
    05:00 +7°C° 0 mm 4 mps 750 mmHg 54%
    06:00 +8°C° 0 mm 5 mps 750 mmHg 51%
    07:00 +9°C° 0 mm 5 mps 750 mmHg 46%
    08:00 +11°C° 0 mm 6 mps 750 mmHg 41%
    09:00 +13°C° 0 mm 6 mps 750 mmHg 35%
    10:00 +15°C° 0 mm 7 mps 750 mmHg 30%
    11:00 +15°C° 0 mm 7 mps 750 mmHg 29%
    12:00 +16°C° 0 mm 6 mps 750 mmHg 28%
    13:00 +19°C° 0 mm 5 mps 750 mmHg 28%
    14:00 +19°C° 0 mm 5 mps 750 mmHg 29%
    15:00 +19°C° 0 mm 4 mps 749 mmHg 30%
    16:00 +19°C° 0 mm 4 mps 749 mmHg 32%
    17:00 +17°C° 0 mm 4 mps 749 mmHg 37%
    18:00 +14°C° 0 mm 3 mps 749 mmHg 43%
    19:00 +12°C° 0 mm 3 mps 750 mmHg 48%
    20:00 +11°C° 0 mm 3 mps 750 mmHg 50%
    21:00 +11°C° 0 mm 3 mps 750 mmHg 51%
    22:00 +10°C° 0 mm 3 mps 750 mmHg 53%
    23:00 +9°C° 0 mm 2 mps 750 mmHg 54%

    Tomorrow, 8 April, Wednesday

    Time Temperature Precipitation Wind Pressure Humidity
    00:00 +9°C° 0 mm 2 mps 750 mmHg 55%
    01:00 +8°C° 0 mm 2 mps 751 mmHg 56%
    02:00 +8°C° 0 mm 2 mps 750 mmHg 57%
    03:00 +7°C° 0 mm 2 mps 750 mmHg 58%
    04:00 +7°C° 0 mm 2 mps 750 mmHg 60%
    05:00 +8°C° 0 mm 2 mps 750 mmHg 58%
    06:00 +8°C° 0 mm 2 mps 750 mmHg 57%
    07:00 +9°C° 0 mm 2 mps 750 mmHg 56%
    08:00 +12°C° 0 mm 2 mps 750 mmHg 51%
    09:00 +14°C° 0 mm 2 mps 750 mmHg 46%
    10:00 +16°C° 0 mm 2 mps 749 mmHg 41%
    11:00 +17°C° 0 mm 2 mps 749 mmHg 37%
    12:00 +19°C° 0 mm 2 mps 748 mmHg 32%
    13:00 +20°C° 0 mm 2 mps 748 mmHg 28%
    14:00 +20°C° 0 mm 2 mps 747 mmHg 26%
    15:00 +20°C° 0 mm 2 mps 747 mmHg 24%
    16:00 +20°C° 0 mm 2 mps 747 mmHg 23%
    17:00 +18°C° 0 mm 2 mps 746 mmHg 26%
    18:00 +16°C° 0 mm 2 mps 746 mmHg 30%
    19:00 +14°C° 0 mm 1 mps 745 mmHg 33%
    20:00 +13°C° 0 mm 2 mps 745 mmHg 37%
    21:00 +12°C° 0 mm 2 mps 745 mmHg 40%
    22:00 +12°C° 0 mm 2 mps 745 mmHg 44%
    23:00 +10°C° 0 mm 2 mps 745 mmHg 47%

    Day after tomorrow, 9 April, Thursday

    Time Temperature Precipitation Wind Pressure Humidity
    00:00 +9°C° 0 mm 2 mps 745 mmHg 50%
    01:00 +9°C° 0 mm 2 mps 745 mmHg 53%
    02:00 +8°C° 0 mm 2 mps 744 mmHg 55%
    03:00 +8°C° 0 mm 2 mps 744 mmHg 57%
    04:00 +7°C° 0 mm 2 mps 744 mmHg 59%
    05:00 +8°C° 0 mm 2 mps 743 mmHg 57%
    06:00 +9°C° 0 mm 3 mps 743 mmHg 56%
    07:00 +10°C° 0 mm 3 mps 743 mmHg 54%
    08:00 +12°C° 0 mm 4 mps 743 mmHg 48%
    09:00 +14°C° 0 mm 4 mps 743 mmHg 43%
    10:00 +17°C° 0 mm 4 mps 742 mmHg 37%
    11:00 +17°C° 0 mm 4 mps 742 mmHg 36%
    12:00 +18°C° 0 mm 4 mps 742 mmHg 35%
    13:00 +19°C° 0 mm 5 mps 742 mmHg 34%
    14:00 +19°C° 0 mm 5 mps 742 mmHg 39%
    15:00 +17°C° 0 mm 5 mps 742 mmHg 45%
    16:00 +17°C° 0 mm 6 mps 742 mmHg 51%
    17:00 +15°C° 0.1 mm 5 mps 742 mmHg 59%
    18:00 +14°C° 0.1 mm 4 mps 742 mmHg 68%
    19:00 +12°C° 0.1 mm 3 mps 742 mmHg 77%
    20:00 +11°C° 0 mm 3 mps 743 mmHg 76%
    21:00 +11°C° 0 mm 3 mps 743 mmHg 76%
    22:00 +10°C° 0 mm 3 mps 744 mmHg 76%
    23:00 +9°C° 0 mm 3 mps 744 mmHg 79%

    10 April, Friday

    Time Temperature Precipitation Wind Pressure Humidity
    00:00 +9°C° 0 mm 2 mps 744 mmHg 82%
    01:00 +8°C° 0 mm 2 mps 744 mmHg 85%
    02:00 +7°C° 0 mm 2 mps 744 mmHg 81%
    03:00 +6°C° 0 mm 2 mps 744 mmHg 78%
    04:00 +5°C° 0 mm 2 mps 745 mmHg 75%
    05:00 +6°C° 0 mm 2 mps 745 mmHg 70%
    06:00 +6°C° 0 mm 2 mps 745 mmHg 65%
    07:00 +6°C° 0 mm 2 mps 746 mmHg 61%
    08:00 +7°C° 0 mm 2 mps 746 mmHg 53%
    09:00 +9°C° 0 mm 2 mps 746 mmHg 46%
    10:00 +10°C° 0 mm 2 mps 746 mmHg 39%
    11:00 +12°C° 0 mm 2 mps 746 mmHg 36%
    12:00 +13°C° 0 mm 2 mps 746 mmHg 33%
    13:00 +14°C° 0 mm 2 mps 745 mmHg 29%
    14:00 +14°C° 0 mm 2 mps 745 mmHg 30%
    15:00 +14°C° 0 mm 2 mps 745 mmHg 30%
    16:00 +14°C° 0 mm 2 mps 744 mmHg 31%
    17:00 +13°C° 0 mm 2 mps 744 mmHg 36%
    18:00 +10°C° 0 mm 2 mps 744 mmHg 41%
    19:00 +9°C° 0 mm 2 mps 744 mmHg 46%
    20:00 +9°C° 0 mm 1 mps 744 mmHg 48%
    21:00 +9°C° 0 mm 1 mps 745 mmHg 51%
    22:00 +8°C° 0 mm 1 mps 745 mmHg 53%
    23:00 +7°C° 0 mm 1 mps 745 mmHg 54%

    11 April, Saturday

    Time Temperature Precipitation Wind Pressure Humidity
    00:00 +7°C° 0 mm 1 mps 745 mmHg 56%
    01:00 +5°C° 0 mm 0 mps 744 mmHg 58%
    02:00 +5°C° 0 mm 0 mps 745 mmHg 59%
    03:00 +5°C° 0 mm 0 mps 745 mmHg 60%
    04:00 +4°C° 0 mm 0 mps 745 mmHg 61%
    05:00 +6°C° 0 mm 0 mps 745 mmHg 58%
    06:00 +7°C° 0 mm 0 mps 745 mmHg 56%
    07:00 +8°C° 0 mm 0 mps 745 mmHg 53%
    08:00 +9°C° 0 mm 0 mps 745 mmHg 48%
    09:00 +11°C° 0 mm 0 mps 745 mmHg 43%
    10:00 +13°C° 0 mm 0 mps 745 mmHg 38%
    11:00 +15°C° 0 mm 1 mps 745 mmHg 36%
    12:00 +16°C° 0 mm 1 mps 745 mmHg 34%
    13:00 +16°C° 0 mm 1 mps 745 mmHg 31%
    14:00 +16°C° 0 mm 1 mps 745 mmHg 31%
    15:00 +16°C° 0 mm 1 mps 744 mmHg 31%
    16:00 +16°C° 0 mm 1 mps 744 mmHg 31%
    17:00 +14°C° 0 mm 1 mps 744 mmHg 35%
    18:00 +13°C° 0 mm 1 mps 744 mmHg 40%
    19:00 +12°C° 0 mm 1 mps 744 mmHg 44%
    20:00 +10°C° 0 mm 2 mps 744 mmHg 47%
    21:00 +9°C° 0 mm 2 mps 744 mmHg 50%
    22:00 +9°C° 0 mm 3 mps 744 mmHg 53%
    23:00 +8°C° 0 mm 3 mps 744 mmHg 55%

    12 April, Sunday

    Time Temperature Precipitation Wind Pressure Humidity
    00:00 +8°C° 0 mm 3 mps 744 mmHg 57%
    01:00 +7°C° 0 mm 3 mps 744 mmHg 59%
    02:00 +7°C° 0 mm 2 mps 743 mmHg 61%
    03:00 +6°C° 0 mm 2 mps 743 mmHg 62%
    04:00 +6°C° 0 mm 2 mps 742 mmHg 64%
    05:00 +7°C° 0 mm 2 mps 742 mmHg 61%
    06:00 +8°C° 0 mm 3 mps 742 mmHg 59%
    07:00 +9°C° 0 mm 3 mps 742 mmHg 57%
    08:00 +11°C° 0 mm 3 mps 742 mmHg 51%
    09:00 +13°C° 0 mm 3 mps 741 mmHg 46%
    10:00 +16°C° 0 mm 3 mps 741 mmHg 40%
    11:00 +17°C° 0 mm 4 mps 740 mmHg 40%
    12:00 +18°C° 0 mm 4 mps 740 mmHg 39%
    13:00 +19°C° 0 mm 4 mps 740 mmHg 38%
    14:00 +19°C° 0 mm 4 mps 739 mmHg 40%
    15:00 +19°C° 0 mm 4 mps 738 mmHg 41%
    16:00 +19°C° 0 mm 5 mps 737 mmHg 42%
    17:00 +18°C° 0 mm 4 mps 737 mmHg 48%
    18:00 +15°C° 0 mm 4 mps 737 mmHg 54%
    19:00 +14°C° 0 mm 4 mps 736 mmHg 59%
    20:00 +13°C° 0 mm 4 mps 736 mmHg 61%
    21:00 +13°C° 0 mm 4 mps 736 mmHg 62%
    22:00 +12°C° 0 mm 4 mps 736 mmHg 63%
    23:00 +12°C° 0 mm 4 mps 736 mmHg 63%
    Show more